Time,TemperatureF,DewpointF,PressureIn,WindDirection,WindDirectionDegrees,WindSpeedMPH,WindSpeedGustMPH,Humidity,HourlyPrecipIn,Conditions,Clouds,dailyrainin,SoftwareType,DateUTC
2013-07-21 00:02:00,81.2,69.2,29.79,East,86,4.0,4.0,67,0.00,,,0.00,Wunderground v.1.15,2013-07-21 05:02:00,
2013-07-21 00:08:00,80.4,68.9,29.78,East,84,4.0,5.0,68,0.00,,,0.00,Wunderground v.1.15,2013-07-21 05:08:00,
2013-07-21 00:14:00,79.9,69.2,29.78,ENE,76,3.0,9.0,70,0.00,,,0.00,Wunderground v.1.15,2013-07-21 05:14:00,
2013-07-21 00:20:00,79.5,69.3,29.79,East,90,3.0,4.0,71,0.00,,,0.00,Wunderground v.1.15,2013-07-21 05:20:00,
2013-07-21 00:26:00,79.1,69.3,29.79,East,82,4.0,7.0,72,0.00,,,0.00,Wunderground v.1.15,2013-07-21 05:26:00,
2013-07-21 00:32:00,78.8,69.0,29.79,SE,145,5.0,5.0,72,0.00,,,0.00,Wunderground v.1.15,2013-07-21 05:32:00,
2013-07-21 00:38:00,78.6,69.2,29.79,East,90,4.0,6.0,73,0.00,,,0.00,Wunderground v.1.15,2013-07-21 05:38:00,
2013-07-21 00:44:00,78.4,69.0,29.80,East,80,3.0,6.0,73,0.00,,,0.00,Wunderground v.1.15,2013-07-21 05:44:00,
2013-07-21 00:50:00,78.3,68.9,29.80,East,87,3.0,3.0,73,0.00,,,0.00,Wunderground v.1.15,2013-07-21 05:50:00,
2013-07-21 00:56:00,78.2,68.8,29.80,ESE,117,3.0,3.0,73,0.00,,,0.00,Wunderground v.1.15,2013-07-21 05:56:00,
2013-07-21 01:02:00,78.0,69.0,29.80,East,84,3.0,3.0,74,0.00,,,0.00,Wunderground v.1.15,2013-07-21 06:02:00,
2013-07-21 01:08:00,77.8,68.8,29.81,East,90,3.0,5.0,74,0.00,,,0.00,Wunderground v.1.15,2013-07-21 06:08:00,
2013-07-21 01:14:00,77.6,69.0,29.82,ENE,69,3.0,3.0,75,0.00,,,0.00,Wunderground v.1.15,2013-07-21 06:14:00,
2013-07-21 01:20:00,77.6,69.0,29.82,NNW,329,2.0,5.0,75,0.00,,,0.00,Wunderground v.1.15,2013-07-21 06:20:00,
2013-07-21 01:26:00,77.5,69.3,29.82,NNE,12,3.0,6.0,76,0.00,,,0.00,Wunderground v.1.15,2013-07-21 06:26:00,
2013-07-21 01:32:00,77.2,69.4,29.81,NNE,25,4.0,4.0,77,0.00,,,0.00,Wunderground v.1.15,2013-07-21 06:32:00,
2013-07-21 01:39:00,76.9,69.5,29.81,NNE,18,2.0,4.0,78,0.00,,,0.00,Wunderground v.1.15,2013-07-21 06:39:00,
2013-07-21 01:44:00,76.7,69.7,29.81,NNE,17,2.0,8.0,79,0.00,,,0.00,Wunderground v.1.15,2013-07-21 06:44:00,
2013-07-21 01:50:00,76.2,70.3,29.81,NNE,33,4.0,4.0,82,0.68,,,0.06,Wunderground v.1.15,2013-07-21 06:50:00,
2013-07-21 01:56:00,75.4,70.2,29.81,NE,44,3.0,4.0,84,0.18,,,0.09,Wunderground v.1.15,2013-07-21 06:56:00,
2013-07-21 02:02:00,74.9,70.4,29.80,NE,51,1.0,2.0,86,0.07,,,0.09,Wunderground v.1.15,2013-07-21 07:02:00,
2013-07-21 02:08:00,74.4,70.3,29.80,East,86,1.0,2.0,87,0.04,,,0.10,Wunderground v.1.15,2013-07-21 07:08:00,
2013-07-21 02:14:00,74.1,70.3,29.79,East,84,2.0,2.0,88,0.04,,,0.10,Wunderground v.1.15,2013-07-21 07:14:00,
2013-07-21 02:20:00,74.0,70.2,29.79,East,82,1.0,1.0,88,0.04,,,0.10,Wunderground v.1.15,2013-07-21 07:20:00,
2013-07-21 02:26:00,74.0,70.6,29.79,East,82,1.0,1.0,89,0.00,,,0.10,Wunderground v.1.15,2013-07-21 07:26:00,
2013-07-21 02:32:00,73.9,70.5,29.78,East,90,1.0,1.0,89,0.00,,,0.10,Wunderground v.1.15,2013-07-21 07:32:00,
2013-07-21 02:38:00,73.8,70.4,29.79,ENE,72,1.0,1.0,89,0.00,,,0.10,Wunderground v.1.15,2013-07-21 07:38:00,
2013-07-21 02:44:00,73.7,70.3,29.79,ENE,72,1.0,1.0,89,0.00,,,0.10,Wunderground v.1.15,2013-07-21 07:44:00,
2013-07-21 02:50:00,73.7,70.3,29.79,ENE,72,0.0,3.0,89,0.00,,,0.10,Wunderground v.1.15,2013-07-21 07:50:00,
2013-07-21 02:56:00,73.7,69.9,29.79,ESE,116,1.0,5.0,88,0.00,,,0.10,Wunderground v.1.15,2013-07-21 07:56:00,
2013-07-21 03:02:00,73.7,69.9,29.80,East,82,2.0,4.0,88,0.00,,,0.10,Wunderground v.1.15,2013-07-21 08:02:00,
2013-07-21 03:08:00,73.7,69.6,29.80,East,85,2.0,4.0,87,0.00,,,0.10,Wunderground v.1.15,2013-07-21 08:08:00,
2013-07-21 03:14:00,73.8,69.7,29.79,East,84,2.0,2.0,87,0.00,,,0.10,Wunderground v.1.15,2013-07-21 08:14:00,
2013-07-21 03:20:00,73.8,69.7,29.79,East,80,1.0,3.0,87,0.00,,,0.10,Wunderground v.1.15,2013-07-21 08:20:00,
2013-07-21 03:26:00,73.7,69.6,29.79,NE,42,2.0,3.0,87,0.00,,,0.10,Wunderground v.1.15,2013-07-21 08:26:00,
2013-07-21 03:32:00,73.5,69.7,29.80,NE,44,1.0,1.0,88,0.00,,,0.10,Wunderground v.1.15,2013-07-21 08:32:00,
2013-07-21 03:39:00,73.4,69.6,29.80,NE,51,2.0,4.0,88,0.00,,,0.10,Wunderground v.1.15,2013-07-21 08:39:00,
2013-07-21 03:44:00,73.2,69.4,29.80,NE,50,2.0,4.0,88,0.00,,,0.10,Wunderground v.1.15,2013-07-21 08:44:00,
2013-07-21 03:50:00,73.0,68.9,29.80,East,80,3.0,3.0,87,0.00,,,0.10,Wunderground v.1.15,2013-07-21 08:50:00,
2013-07-21 03:56:00,72.9,68.8,29.81,NE,47,4.0,6.0,87,0.00,,,0.10,Wunderground v.1.15,2013-07-21 08:56:00,
2013-07-21 04:02:00,73.0,68.9,29.82,NNE,19,4.0,6.0,87,0.00,,,0.10,Wunderground v.1.15,2013-07-21 09:02:00,
2013-07-21 04:08:00,73.1,69.0,29.82,North,5,4.0,6.0,87,0.00,,,0.10,Wunderground v.1.15,2013-07-21 09:08:00,
2013-07-21 04:14:00,73.1,69.0,29.82,NNE,13,4.0,12.0,87,0.00,,,0.10,Wunderground v.1.15,2013-07-21 09:14:00,
2013-07-21 04:20:00,73.1,69.0,29.82,North,360,5.0,5.0,87,0.00,,,0.10,Wunderground v.1.15,2013-07-21 09:20:00,
2013-07-21 04:26:00,72.9,69.1,29.83,North,5,4.0,7.0,88,0.00,,,0.10,Wunderground v.1.15,2013-07-21 09:26:00,
2013-07-21 04:32:00,72.6,68.8,29.83,NE,49,4.0,4.0,88,0.16,,,0.12,Wunderground v.1.15,2013-07-21 09:32:00,
2013-07-21 04:39:00,72.3,68.9,29.83,NNE,24,2.0,4.0,89,0.23,,,0.14,Wunderground v.1.15,2013-07-21 09:39:00,
2013-07-21 04:44:00,72.0,68.9,29.83,NNE,17,3.0,5.0,90,0.14,,,0.15,Wunderground v.1.15,2013-07-21 09:44:00,
2013-07-21 04:50:00,71.6,68.5,29.83,North,360,3.0,3.0,90,0.19,,,0.18,Wunderground v.1.15,2013-07-21 09:50:00,
2013-07-21 04:56:00,71.5,68.7,29.83,NE,48,2.0,6.0,91,0.29,,,0.21,Wunderground v.1.15,2013-07-21 09:56:00,
2013-07-21 05:02:00,71.3,68.5,29.82,NNE,32,3.0,5.0,91,0.28,,,0.23,Wunderground v.1.15,2013-07-21 10:02:00,
2013-07-21 05:08:00,70.9,68.1,29.82,NE,52,4.0,5.0,91,0.24,,,0.26,Wunderground v.1.15,2013-07-21 10:08:00,
2013-07-21 05:14:00,70.8,68.4,29.82,NE,55,4.0,5.0,92,0.23,,,0.29,Wunderground v.1.15,2013-07-21 10:14:00,
2013-07-21 05:20:00,70.6,68.2,29.82,NE,36,4.0,4.0,92,0.22,,,0.31,Wunderground v.1.15,2013-07-21 10:20:00,
2013-07-21 05:26:00,70.4,68.0,29.82,NE,38,4.0,5.0,92,0.28,,,0.33,Wunderground v.1.15,2013-07-21 10:26:00,
2013-07-21 05:32:00,70.2,68.1,29.81,NE,45,4.0,5.0,93,0.21,,,0.35,Wunderground v.1.15,2013-07-21 10:32:00,
2013-07-21 05:38:00,70.1,68.0,29.81,NNE,28,4.0,5.0,93,0.18,,,0.37,Wunderground v.1.15,2013-07-21 10:38:00,
2013-07-21 05:44:00,70.1,68.0,29.81,North,9,4.0,5.0,93,0.13,,,0.38,Wunderground v.1.15,2013-07-21 10:44:00,
2013-07-21 05:50:00,70.1,68.3,29.82,NE,39,2.0,2.0,94,0.10,,,0.39,Wunderground v.1.15,2013-07-21 10:50:00,
2013-07-21 05:56:00,70.2,68.4,29.82,NE,45,1.0,3.0,94,0.05,,,0.39,Wunderground v.1.15,2013-07-21 10:56:00,
2013-07-21 06:02:00,70.3,68.5,29.82,ENE,67,1.0,1.0,94,0.04,,,0.40,Wunderground v.1.15,2013-07-21 11:02:00,
2013-07-21 06:08:00,70.5,68.7,29.82,East,84,1.0,5.0,94,0.14,,,0.41,Wunderground v.1.15,2013-07-21 11:08:00,
2013-07-21 06:14:00,70.5,68.7,29.82,East,86,1.0,1.0,94,0.11,,,0.42,Wunderground v.1.15,2013-07-21 11:14:00,
2013-07-21 06:20:00,70.6,68.8,29.82,East,85,1.0,1.0,94,0.10,,,0.43,Wunderground v.1.15,2013-07-21 11:20:00,
2013-07-21 06:26:00,70.7,68.9,29.82,East,92,1.0,3.0,94,0.24,,,0.45,Wunderground v.1.15,2013-07-21 11:26:00,
2013-07-21 06:32:00,70.6,68.8,29.81,East,92,2.0,3.0,94,0.16,,,0.47,Wunderground v.1.15,2013-07-21 11:32:00,
2013-07-21 06:39:00,70.8,69.3,29.81,East,92,1.0,3.0,95,0.12,,,0.48,Wunderground v.1.15,2013-07-21 11:39:00,
2013-07-21 06:44:00,70.9,69.4,29.81,East,92,1.0,2.0,95,0.20,,,0.50,Wunderground v.1.15,2013-07-21 11:44:00,
2013-07-21 06:50:00,71.0,69.5,29.80,East,93,1.0,2.0,95,0.32,,,0.53,Wunderground v.1.15,2013-07-21 11:50:00,
2013-07-21 06:56:00,71.0,69.5,29.80,ESE,102,1.0,3.0,95,0.19,,,0.55,Wunderground v.1.15,2013-07-21 11:56:00,
2013-07-21 07:02:00,71.1,69.6,29.80,ESE,118,1.0,3.0,95,0.12,,,0.57,Wunderground v.1.15,2013-07-21 12:02:00,
2013-07-21 07:08:00,71.1,69.6,29.80,SE,130,2.0,3.0,95,0.13,,,0.58,Wunderground v.1.15,2013-07-21 12:08:00,
2013-07-21 07:14:00,71.2,69.7,29.80,SE,130,1.0,2.0,95,0.15,,,0.60,Wunderground v.1.15,2013-07-21 12:14:00,
2013-07-21 07:20:00,71.2,69.7,29.80,SE,127,0.0,0.0,95,0.15,,,0.62,Wunderground v.1.15,2013-07-21 12:20:00,
2013-07-21 07:26:00,71.3,69.8,29.80,SE,127,0.0,1.0,95,0.12,,,0.63,Wunderground v.1.15,2013-07-21 12:26:00,
2013-07-21 07:32:00,71.3,69.8,29.81,SE,125,0.0,1.0,95,0.11,,,0.64,Wunderground v.1.15,2013-07-21 12:32:00,
2013-07-21 07:38:00,71.3,69.8,29.80,SE,125,0.0,1.0,95,0.32,,,0.67,Wunderground v.1.15,2013-07-21 12:38:00,
2013-07-21 07:44:00,71.4,69.9,29.80,East,86,0.0,4.0,95,0.23,,,0.69,Wunderground v.1.15,2013-07-21 12:44:00,
2013-07-21 07:50:00,71.3,69.8,29.79,East,83,1.0,2.0,95,0.22,,,0.71,Wunderground v.1.15,2013-07-21 12:50:00,
2013-07-21 07:56:00,71.1,69.6,29.79,East,88,1.0,2.0,95,0.17,,,0.73,Wunderground v.1.15,2013-07-21 12:56:00,
2013-07-21 08:02:00,71.0,69.5,29.79,ESE,116,1.0,3.0,95,0.15,,,0.74,Wunderground v.1.15,2013-07-21 13:02:00,
2013-07-21 08:08:00,70.8,69.3,29.79,SE,126,1.0,4.0,95,0.15,,,0.76,Wunderground v.1.15,2013-07-21 13:08:00,
2013-07-21 08:14:00,70.9,69.4,29.79,SSE,154,2.0,3.0,95,0.11,,,0.76,Wunderground v.1.15,2013-07-21 13:14:00,
2013-07-21 08:20:00,71.2,69.7,29.79,SSE,158,2.0,7.0,95,0.17,,,0.78,Wunderground v.1.15,2013-07-21 13:20:00,
2013-07-21 08:26:00,71.3,69.8,29.78,South,181,4.0,7.0,95,0.16,,,0.79,Wunderground v.1.15,2013-07-21 13:26:00,
2013-07-21 08:32:00,71.5,70.0,29.79,SSE,152,3.0,7.0,95,0.06,,,0.79,Wunderground v.1.15,2013-07-21 13:32:00,
2013-07-21 08:39:00,71.7,70.2,29.80,SE,146,2.0,7.0,95,0.04,,,0.79,Wunderground v.1.15,2013-07-21 13:39:00,
2013-07-21 08:44:00,71.8,70.3,29.80,SE,144,1.0,2.0,95,0.00,,,0.79,Wunderground v.1.15,2013-07-21 13:44:00,
2013-07-21 08:50:00,71.9,70.4,29.80,SE,124,1.0,1.0,95,0.00,,,0.79,Wunderground v.1.15,2013-07-21 13:50:00,
2013-07-21 08:56:00,72.0,70.5,29.80,ESE,119,2.0,3.0,95,0.00,,,0.80,Wunderground v.1.15,2013-07-21 13:56:00,
2013-07-21 09:02:00,72.0,70.5,29.81,East,82,2.0,3.0,95,0.09,,,0.81,Wunderground v.1.15,2013-07-21 14:02:00,
2013-07-21 09:09:00,72.2,70.7,29.83,NNW,331,2.0,4.0,95,0.46,,,0.85,Wunderground v.1.15,2013-07-21 14:09:00,
2013-07-21 09:14:00,72.1,70.6,29.83,NNW,339,3.0,6.0,95,1.71,,,0.91,Wunderground v.1.15,2013-07-21 14:14:00,
2013-07-21 09:18:00,71.7,70.2,29.83,North,5,4.0,6.0,95,0.69,,,1.01,Wunderground v.1.15,2013-07-21 14:18:00,
2013-07-21 09:24:00,71.5,70.0,29.83,NNE,18,3.0,4.0,95,0.40,,,1.06,Wunderground v.1.15,2013-07-21 14:24:00,
2013-07-21 09:30:00,71.3,69.8,29.83,NNE,18,1.0,1.0,95,0.24,,,1.09,Wunderground v.1.15,2013-07-21 14:30:00,
2013-07-21 09:36:00,71.4,69.9,29.83,NNE,18,0.0,1.0,95,0.14,,,1.11,Wunderground v.1.15,2013-07-21 14:36:00,
2013-07-21 09:42:00,71.5,70.0,29.83,NNE,18,0.0,0.0,95,0.24,,,1.13,Wunderground v.1.15,2013-07-21 14:42:00,
2013-07-21 09:49:00,71.6,70.1,29.82,NNE,18,0.0,1.0,95,0.15,,,1.15,Wunderground v.1.15,2013-07-21 14:49:00,
2013-07-21 09:54:00,71.7,70.2,29.82,SSE,150,1.0,4.0,95,0.20,,,1.16,Wunderground v.1.15,2013-07-21 14:54:00,
2013-07-21 10:00:00,71.7,70.2,29.82,SSE,150,3.0,3.0,95,0.12,,,1.17,Wunderground v.1.15,2013-07-21 15:00:00,
2013-07-21 10:06:00,71.8,70.3,29.82,SSE,153,3.0,8.0,95,0.05,,,1.17,Wunderground v.1.15,2013-07-21 15:06:00,
2013-07-21 10:12:00,72.0,70.5,29.81,SSE,157,5.0,9.0,95,0.04,,,1.17,Wunderground v.1.15,2013-07-21 15:12:00,
2013-07-21 10:18:00,72.4,70.9,29.81,SSE,166,5.0,11.0,95,0.00,,,1.17,Wunderground v.1.15,2013-07-21 15:18:00,
2013-07-21 10:24:00,72.4,70.9,29.81,SSE,150,6.0,10.0,95,0.00,,,1.17,Wunderground v.1.15,2013-07-21 15:24:00,
2013-07-21 10:30:00,72.4,70.9,29.81,South,174,8.0,8.0,95,0.00,,,1.17,Wunderground v.1.15,2013-07-21 15:30:00,
2013-07-21 10:36:00,72.5,71.0,29.81,SE,130,7.0,12.0,95,0.00,,,1.17,Wunderground v.1.15,2013-07-21 15:36:00,
2013-07-21 10:42:00,72.6,71.1,29.81,South,190,6.0,9.0,95,0.00,,,1.17,Wunderground v.1.15,2013-07-21 15:42:00,
2013-07-21 10:48:00,72.5,71.0,29.82,SSW,196,5.0,11.0,95,0.00,,,1.17,Wunderground v.1.15,2013-07-21 15:48:00,
2013-07-21 10:54:00,72.7,71.2,29.82,SSE,157,5.0,8.0,95,0.00,,,1.17,Wunderground v.1.15,2013-07-21 15:54:00,
2013-07-21 11:00:00,72.8,71.3,29.82,South,180,4.0,4.0,95,0.00,,,1.17,Wunderground v.1.15,2013-07-21 16:00:00,
2013-07-21 11:06:00,72.9,71.4,29.82,SSE,154,3.0,6.0,95,0.00,,,1.17,Wunderground v.1.15,2013-07-21 16:06:00,
2013-07-21 11:12:00,73.1,71.6,29.82,South,182,2.0,2.0,95,0.00,,,1.17,Wunderground v.1.15,2013-07-21 16:12:00,
2013-07-21 11:18:00,73.1,71.6,29.83,South,182,1.0,2.0,95,0.00,,,1.17,Wunderground v.1.15,2013-07-21 16:18:00,
2013-07-21 11:24:00,73.3,71.5,29.83,SSE,157,1.0,1.0,94,0.00,,,1.17,Wunderground v.1.15,2013-07-21 16:24:00,
2013-07-21 11:30:00,73.5,71.7,29.83,NE,46,1.0,1.0,94,0.00,,,1.17,Wunderground v.1.15,2013-07-21 16:30:00,
2013-07-21 11:36:00,73.7,71.9,29.83,NE,46,1.0,1.0,94,0.00,,,1.17,Wunderground v.1.15,2013-07-21 16:36:00,
2013-07-21 11:42:00,73.8,72.0,29.83,NE,46,0.0,1.0,94,0.00,,,1.17,Wunderground v.1.15,2013-07-21 16:42:00,
2013-07-21 11:48:00,74.1,72.3,29.83,NE,51,0.0,2.0,94,0.00,,,1.17,Wunderground v.1.15,2013-07-21 16:48:00,
2013-07-21 11:54:00,74.2,72.4,29.83,NE,53,0.0,0.0,94,0.00,,,1.17,Wunderground v.1.15,2013-07-21 16:54:00,
2013-07-21 12:00:00,74.3,72.1,29.83,ENE,67,0.0,0.0,93,0.00,,,1.17,Wunderground v.1.15,2013-07-21 17:00:00,
2013-07-21 12:06:00,74.5,72.3,29.83,ENE,65,0.0,3.0,93,0.00,,,1.17,Wunderground v.1.15,2013-07-21 17:06:00,
2013-07-21 12:12:00,74.6,72.4,29.83,ENE,66,0.0,0.0,93,0.00,,,1.17,Wunderground v.1.15,2013-07-21 17:12:00,
2013-07-21 12:18:00,74.7,72.2,29.83,ENE,67,0.0,1.0,92,0.00,,,1.17,Wunderground v.1.15,2013-07-21 17:18:00,
2013-07-21 12:24:00,74.8,72.3,29.83,East,80,0.0,3.0,92,0.00,,,1.17,Wunderground v.1.15,2013-07-21 17:24:00,
2013-07-21 12:30:00,74.8,72.3,29.83,East,81,1.0,1.0,92,0.00,,,1.17,Wunderground v.1.15,2013-07-21 17:30:00,
2013-07-21 12:36:00,74.9,72.1,29.83,East,81,1.0,1.0,91,0.00,,,1.17,Wunderground v.1.15,2013-07-21 17:36:00,
2013-07-21 12:42:00,75.0,72.2,29.83,East,81,0.0,0.0,91,0.00,,,1.17,Wunderground v.1.15,2013-07-21 17:42:00,
2013-07-21 12:48:00,75.0,72.2,29.83,East,87,0.0,1.0,91,0.00,,,1.17,Wunderground v.1.15,2013-07-21 17:48:00,
2013-07-21 12:54:00,74.9,72.1,29.83,ESE,102,1.0,2.0,91,0.00,,,1.17,Wunderground v.1.15,2013-07-21 17:54:00,
2013-07-21 13:00:00,74.9,72.1,29.83,ESE,102,1.0,2.0,91,0.00,,,1.17,Wunderground v.1.15,2013-07-21 18:00:00,
2013-07-21 13:06:00,74.8,72.0,29.83,ESE,106,1.0,4.0,91,0.00,,,1.18,Wunderground v.1.15,2013-07-21 18:06:00,
2013-07-21 13:12:00,74.7,71.9,29.82,ESE,109,2.0,2.0,91,0.00,,,1.18,Wunderground v.1.15,2013-07-21 18:12:00,
2013-07-21 13:18:00,74.9,72.4,29.82,ESE,109,1.0,2.0,92,0.05,,,1.19,Wunderground v.1.15,2013-07-21 18:18:00,
2013-07-21 13:24:00,74.6,72.1,29.82,SE,144,1.0,6.0,92,0.15,,,1.20,Wunderground v.1.15,2013-07-21 18:24:00,
2013-07-21 13:30:00,74.5,72.0,29.80,SE,144,4.0,4.0,92,0.12,,,1.21,Wunderground v.1.15,2013-07-21 18:30:00,
2013-07-21 13:36:00,74.5,72.3,29.80,SE,142,4.0,5.0,93,0.10,,,1.22,Wunderground v.1.15,2013-07-21 18:36:00,
2013-07-21 13:42:00,74.5,72.3,29.80,SSE,167,2.0,4.0,93,0.05,,,1.22,Wunderground v.1.15,2013-07-21 18:42:00,
2013-07-21 13:48:00,74.5,72.3,29.79,SSE,164,2.0,4.0,93,0.00,,,1.22,Wunderground v.1.15,2013-07-21 18:48:00,
2013-07-21 13:54:00,74.7,72.5,29.79,SSE,155,2.0,7.0,93,0.00,,,1.22,Wunderground v.1.15,2013-07-21 18:54:00,
2013-07-21 14:00:00,74.9,73.1,29.78,SSE,162,2.0,2.0,94,0.00,,,1.22,Wunderground v.1.15,2013-07-21 19:00:00,
2013-07-21 14:06:00,75.3,73.5,29.78,SE,140,2.0,3.0,94,0.00,,,1.22,Wunderground v.1.15,2013-07-21 19:06:00,
2013-07-21 14:12:00,75.3,73.1,29.77,SSE,157,2.0,5.0,93,0.00,,,1.22,Wunderground v.1.15,2013-07-21 19:12:00,
2013-07-21 14:19:00,75.5,73.3,29.78,SSE,163,2.0,5.0,93,0.00,,,1.22,Wunderground v.1.15,2013-07-21 19:19:00,
2013-07-21 14:24:00,76.1,74.2,29.77,SSE,167,1.0,2.0,94,0.00,,,1.22,Wunderground v.1.15,2013-07-21 19:24:00,
2013-07-21 14:30:00,76.3,74.1,29.77,SE,143,1.0,1.0,93,0.00,,,1.22,Wunderground v.1.15,2013-07-21 19:30:00,
2013-07-21 14:36:00,77.0,74.8,29.77,SE,142,2.0,2.0,93,0.00,,,1.22,Wunderground v.1.15,2013-07-21 19:36:00,
2013-07-21 14:42:00,77.2,74.7,29.76,SE,143,1.0,3.0,92,0.00,,,1.22,Wunderground v.1.15,2013-07-21 19:42:00,
2013-07-21 14:48:00,77.6,74.8,29.77,SE,145,2.0,5.0,91,0.00,,,1.22,Wunderground v.1.15,2013-07-21 19:48:00,
2013-07-21 14:54:00,78.3,75.5,29.76,SE,146,2.0,3.0,91,0.00,,,1.22,Wunderground v.1.15,2013-07-21 19:54:00,
2013-07-21 15:00:00,78.9,75.0,29.75,South,178,3.0,3.0,88,0.00,,,1.22,Wunderground v.1.15,2013-07-21 20:00:00,
2013-07-21 15:06:00,79.8,75.9,29.75,SSE,155,4.0,4.0,88,0.00,,,1.22,Wunderground v.1.15,2013-07-21 20:06:00,
2013-07-21 15:12:00,81.0,76.4,29.75,SSE,164,2.0,5.0,86,0.00,,,1.22,Wunderground v.1.15,2013-07-21 20:12:00,
2013-07-21 15:18:00,81.4,75.4,29.74,SSE,165,3.0,6.0,82,0.00,,,1.22,Wunderground v.1.15,2013-07-21 20:18:00,
2013-07-21 15:24:00,81.6,75.6,29.74,SSE,168,4.0,7.0,82,0.00,,,1.22,Wunderground v.1.15,2013-07-21 20:24:00,
2013-07-21 15:30:00,82.0,76.0,29.74,SSE,157,4.0,4.0,82,0.00,,,1.22,Wunderground v.1.15,2013-07-21 20:30:00,
2013-07-21 15:36:00,82.7,75.9,29.74,SSE,163,3.0,4.0,80,0.00,,,1.22,Wunderground v.1.15,2013-07-21 20:36:00,
2013-07-21 15:42:00,83.6,76.8,29.73,SE,146,2.0,3.0,80,0.00,,,1.22,Wunderground v.1.15,2013-07-21 20:42:00,
2013-07-21 15:49:00,84.5,76.1,29.73,SSE,159,1.0,3.0,76,0.00,,,1.22,Wunderground v.1.15,2013-07-21 20:49:00,
2013-07-21 15:54:00,85.1,77.1,29.73,SE,142,1.0,2.0,77,0.00,,,1.22,Wunderground v.1.15,2013-07-21 20:54:00,
2013-07-21 16:00:00,84.9,76.9,29.73,SSE,159,2.0,3.0,77,0.00,,,1.22,Wunderground v.1.15,2013-07-21 21:00:00,
2013-07-21 16:06:00,85.4,77.0,29.73,SSW,193,2.0,6.0,76,0.00,,,1.22,Wunderground v.1.15,2013-07-21 21:06:00,
2013-07-21 16:12:00,86.0,76.3,29.72,SSE,166,1.0,1.0,73,0.00,,,1.22,Wunderground v.1.15,2013-07-21 21:12:00,
2013-07-21 16:18:00,86.5,76.4,29.72,SSE,163,2.0,8.0,72,0.00,,,1.22,Wunderground v.1.15,2013-07-21 21:18:00,
2013-07-21 16:24:00,86.4,76.7,29.72,SSE,166,3.0,5.0,73,0.00,,,1.22,Wunderground v.1.15,2013-07-21 21:24:00,
2013-07-21 16:30:00,87.0,77.3,29.72,SSE,152,2.0,2.0,73,0.00,,,1.22,Wunderground v.1.15,2013-07-21 21:30:00,
2013-07-21 16:36:00,87.0,76.5,29.72,South,173,2.0,5.0,71,0.00,,,1.22,Wunderground v.1.15,2013-07-21 21:36:00,
2013-07-21 16:42:00,86.9,76.8,29.72,SSE,165,3.0,3.0,72,0.00,,,1.22,Wunderground v.1.15,2013-07-21 21:42:00,
2013-07-21 16:48:00,87.6,76.6,29.72,SSE,162,2.0,3.0,70,0.00,,,1.22,Wunderground v.1.15,2013-07-21 21:48:00,
2013-07-21 16:54:00,88.6,77.1,29.71,SSE,161,2.0,3.0,69,0.00,,,1.22,Wunderground v.1.15,2013-07-21 21:54:00,
2013-07-21 17:00:00,88.5,76.6,29.71,South,179,2.0,9.0,68,0.00,,,1.22,Wunderground v.1.15,2013-07-21 22:00:00,
2013-07-21 17:06:00,88.2,75.9,29.71,South,171,4.0,9.0,67,0.00,,,1.22,Wunderground v.1.15,2013-07-21 22:06:00,
2013-07-21 17:12:00,88.6,77.1,29.71,SSE,160,2.0,3.0,69,0.00,,,1.22,Wunderground v.1.15,2013-07-21 22:12:00,
2013-07-21 17:19:00,89.1,76.3,29.71,South,169,2.0,3.0,66,0.00,,,1.22,Wunderground v.1.15,2013-07-21 22:19:00,
2013-07-21 17:24:00,89.5,76.6,29.71,SSE,160,1.0,4.0,66,0.00,,,1.22,Wunderground v.1.15,2013-07-21 22:24:00,
2013-07-21 17:30:00,89.5,77.1,29.71,SSE,150,2.0,2.0,67,0.00,,,1.22,Wunderground v.1.15,2013-07-21 22:30:00,
2013-07-21 17:36:00,89.7,76.4,29.71,SSE,165,2.0,2.0,65,0.00,,,1.22,Wunderground v.1.15,2013-07-21 22:36:00,
2013-07-21 17:42:00,90.1,76.7,29.71,SSE,158,2.0,2.0,65,0.00,,,1.22,Wunderground v.1.15,2013-07-21 22:42:00,
2013-07-21 17:48:00,89.9,77.0,29.71,SSE,159,1.0,7.0,66,0.00,,,1.22,Wunderground v.1.15,2013-07-21 22:48:00,
2013-07-21 17:54:00,90.1,76.7,29.71,South,169,1.0,4.0,65,0.00,,,1.22,Wunderground v.1.15,2013-07-21 22:54:00,
2013-07-21 18:00:00,90.0,76.6,29.71,SSE,168,1.0,2.0,65,0.00,,,1.22,Wunderground v.1.15,2013-07-21 23:00:00,
2013-07-21 18:06:00,90.2,77.3,29.70,SE,146,1.0,5.0,66,0.00,,,1.22,Wunderground v.1.15,2013-07-21 23:06:00,
2013-07-21 18:12:00,90.7,76.4,29.70,SE,146,1.0,3.0,63,0.00,,,1.22,Wunderground v.1.15,2013-07-21 23:12:00,
2013-07-21 18:19:00,90.7,76.8,29.71,SE,138,1.0,3.0,64,0.00,,,1.22,Wunderground v.1.15,2013-07-21 23:19:00,
2013-07-21 18:24:00,90.7,76.8,29.71,SE,138,1.0,5.0,64,0.00,,,1.22,Wunderground v.1.15,2013-07-21 23:24:00,
2013-07-21 18:30:00,90.7,76.4,29.71,SSE,167,2.0,2.0,63,0.00,,,1.22,Wunderground v.1.15,2013-07-21 23:30:00,
2013-07-21 18:36:00,90.7,75.4,29.71,SSE,155,2.0,6.0,61,0.00,,,1.22,Wunderground v.1.15,2013-07-21 23:36:00,
2013-07-21 18:42:00,91.0,75.2,29.71,SSE,155,1.0,1.0,60,0.00,,,1.22,Wunderground v.1.15,2013-07-21 23:42:00,
2013-07-21 18:48:00,91.0,75.7,29.70,SSE,155,0.0,1.0,61,0.00,,,1.22,Wunderground v.1.15,2013-07-21 23:48:00,
2013-07-21 18:54:00,91.0,75.2,29.71,SSE,167,0.0,1.0,60,0.00,,,1.22,Wunderground v.1.15,2013-07-21 23:54:00,
2013-07-21 19:00:00,91.0,76.2,29.71,SSE,161,1.0,1.0,62,0.00,,,1.22,Wunderground v.1.15,2013-07-22 00:00:00,
2013-07-21 19:06:00,91.0,75.7,29.71,SSE,160,0.0,2.0,61,0.00,,,1.22,Wunderground v.1.15,2013-07-22 00:06:00,
2013-07-21 19:12:00,90.7,75.4,29.71,SSE,163,1.0,2.0,61,0.00,,,1.22,Wunderground v.1.15,2013-07-22 00:12:00,
2013-07-21 19:18:00,90.5,75.7,29.71,SSE,163,1.0,2.0,62,0.00,,,1.22,Wunderground v.1.15,2013-07-22 00:18:00,
2013-07-21 19:24:00,90.3,75.5,29.71,SSE,164,2.0,3.0,62,0.00,,,1.22,Wunderground v.1.15,2013-07-22 00:24:00,
2013-07-21 19:30:00,90.0,75.7,29.71,SSE,149,2.0,2.0,63,0.00,,,1.22,Wunderground v.1.15,2013-07-22 00:30:00,
2013-07-21 19:36:00,90.1,75.8,29.70,SSE,148,1.0,2.0,63,0.00,,,1.22,Wunderground v.1.15,2013-07-22 00:36:00,
2013-07-21 19:42:00,89.8,76.0,29.71,SSE,161,1.0,2.0,64,0.00,,,1.22,Wunderground v.1.15,2013-07-22 00:42:00,
2013-07-21 19:49:00,89.3,76.0,29.71,SSE,161,1.0,2.0,65,0.00,,,1.22,Wunderground v.1.15,2013-07-22 00:49:00,
2013-07-21 19:54:00,88.8,75.5,29.71,SSE,153,2.0,6.0,65,0.00,,,1.22,Wunderground v.1.15,2013-07-22 00:54:00,
2013-07-21 20:00:00,88.4,75.6,29.71,SSE,149,2.0,2.0,66,0.00,,,1.22,Wunderground v.1.15,2013-07-22 01:00:00,
2013-07-21 20:06:00,88.1,75.3,29.71,SSE,157,2.0,3.0,66,0.00,,,1.22,Wunderground v.1.15,2013-07-22 01:06:00,
2013-07-21 20:12:00,87.9,75.1,29.71,SSE,155,2.0,2.0,66,0.00,,,1.22,Wunderground v.1.15,2013-07-22 01:12:00,
2013-07-21 20:18:00,87.7,75.4,29.71,SSE,165,1.0,5.0,67,0.00,,,1.22,Wunderground v.1.15,2013-07-22 01:18:00,
2013-07-21 20:24:00,87.5,75.2,29.71,SSE,164,1.0,2.0,67,0.00,,,1.22,Wunderground v.1.15,2013-07-22 01:24:00,
2013-07-21 20:30:00,87.4,75.1,29.71,SSE,166,1.0,1.0,67,0.00,,,1.22,Wunderground v.1.15,2013-07-22 01:30:00,
2013-07-21 20:36:00,87.2,75.3,29.71,SSE,159,1.0,2.0,68,0.00,,,1.22,Wunderground v.1.15,2013-07-22 01:36:00,
2013-07-21 20:42:00,87.1,75.3,29.71,SSE,158,1.0,1.0,68,0.00,,,1.22,Wunderground v.1.15,2013-07-22 01:42:00,
2013-07-21 20:49:00,87.0,75.2,29.71,SSE,157,1.0,1.0,68,0.00,,,1.22,Wunderground v.1.15,2013-07-22 01:49:00,
2013-07-21 20:54:00,86.8,75.0,29.71,SSE,155,1.0,2.0,68,0.00,,,1.22,Wunderground v.1.15,2013-07-22 01:54:00,
2013-07-21 21:00:00,86.8,75.0,29.71,SSE,155,2.0,3.0,68,0.00,,,1.22,Wunderground v.1.15,2013-07-22 02:00:00,
2013-07-21 21:06:00,86.7,75.3,29.71,SE,146,2.0,4.0,69,0.00,,,1.22,Wunderground v.1.15,2013-07-22 02:06:00,
2013-07-21 21:12:00,86.6,75.2,29.71,SSE,149,2.0,2.0,69,0.00,,,1.22,Wunderground v.1.15,2013-07-22 02:12:00,
2013-07-21 21:18:00,86.6,75.2,29.71,SSE,156,2.0,2.0,69,0.00,,,1.22,Wunderground v.1.15,2013-07-22 02:18:00,
2013-07-21 21:24:00,86.5,75.1,29.71,South,169,2.0,4.0,69,0.00,,,1.22,Wunderground v.1.15,2013-07-22 02:24:00,
2013-07-21 21:30:00,86.4,75.0,29.71,SSE,161,1.0,1.0,69,0.00,,,1.22,Wunderground v.1.15,2013-07-22 02:30:00,
2013-07-21 21:36:00,86.2,75.3,29.72,SSE,162,1.0,4.0,70,0.00,,,1.22,Wunderground v.1.15,2013-07-22 02:36:00,
2013-07-21 21:42:00,86.0,75.1,29.72,SSE,160,1.0,1.0,70,0.00,,,1.22,Wunderground v.1.15,2013-07-22 02:42:00,
2013-07-21 21:48:00,85.9,75.0,29.72,SSE,161,1.0,2.0,70,0.00,,,1.22,Wunderground v.1.15,2013-07-22 02:48:00,
2013-07-21 21:54:00,85.8,74.9,29.72,SSE,156,1.0,1.0,70,0.00,,,1.22,Wunderground v.1.15,2013-07-22 02:54:00,
2013-07-21 22:00:00,85.7,74.8,29.72,SE,146,1.0,1.0,70,0.00,,,1.22,Wunderground v.1.15,2013-07-22 03:00:00,
2013-07-21 22:06:00,85.7,74.8,29.72,SE,146,1.0,2.0,70,0.00,,,1.22,Wunderground v.1.15,2013-07-22 03:06:00,
2013-07-21 22:12:00,85.5,74.6,29.72,SSE,151,0.0,3.0,70,0.00,,,1.22,Wunderground v.1.15,2013-07-22 03:12:00,
2013-07-21 22:18:00,85.4,74.5,29.72,SSE,149,1.0,3.0,70,0.00,,,1.22,Wunderground v.1.15,2013-07-22 03:18:00,
2013-07-21 22:24:00,85.2,74.3,29.72,SSE,149,1.0,1.0,70,0.00,,,1.22,Wunderground v.1.15,2013-07-22 03:24:00,
2013-07-21 22:30:00,85.1,74.2,29.72,SSE,150,1.0,1.0,70,0.00,,,1.22,Wunderground v.1.15,2013-07-22 03:30:00,
2013-07-21 22:36:00,85.0,74.5,29.73,SSE,153,1.0,1.0,71,0.00,,,1.22,Wunderground v.1.15,2013-07-22 03:36:00,
2013-07-21 22:42:00,84.9,74.0,29.73,SSE,159,1.0,1.0,70,0.00,,,1.22,Wunderground v.1.15,2013-07-22 03:42:00,
2013-07-21 22:48:00,84.8,73.9,29.73,SSE,161,1.0,1.0,70,0.00,,,1.22,Wunderground v.1.15,2013-07-22 03:48:00,
2013-07-21 22:54:00,84.7,73.8,29.73,SSE,160,1.0,1.0,70,0.00,,,1.22,Wunderground v.1.15,2013-07-22 03:54:00,
2013-07-21 23:00:00,84.6,74.2,29.73,SSE,160,1.0,3.0,71,0.00,,,1.22,Wunderground v.1.15,2013-07-22 04:00:00,
2013-07-21 23:02:00,84.6,74.2,29.73,SSE,161,1.0,3.0,71,0.00,,,1.22,Wunderground v.1.15,2013-07-22 04:02:00,
2013-07-21 23:04:00,84.6,74.2,29.73,SSE,165,1.0,3.0,71,0.00,,,1.22,Wunderground v.1.15,2013-07-22 04:04:00,
2013-07-21 23:06:00,84.6,74.2,29.73,SSE,161,1.0,3.0,71,0.00,,,1.22,Wunderground v.1.15,2013-07-22 04:06:00,
2013-07-21 23:08:00,84.5,74.1,29.73,SSE,157,1.0,3.0,71,0.00,,,1.22,Wunderground v.1.15,2013-07-22 04:08:00,
2013-07-21 23:14:00,84.4,74.0,29.73,SSE,157,1.0,1.0,71,0.00,,,1.22,Wunderground v.1.15,2013-07-22 04:14:00,
2013-07-21 23:16:00,84.3,73.9,29.73,SSE,157,0.0,1.0,71,0.00,,,1.22,Wunderground v.1.15,2013-07-22 04:16:00,
2013-07-21 23:22:00,84.3,73.9,29.73,South,178,1.0,1.0,71,0.00,,,1.22,Wunderground v.1.15,2013-07-22 04:22:00,
2013-07-21 23:28:00,84.2,73.8,29.73,South,175,1.0,2.0,71,0.00,,,1.22,Wunderground v.1.15,2013-07-22 04:28:00,
2013-07-21 23:34:00,84.1,73.7,29.73,South,176,1.0,7.0,71,0.00,,,1.22,Wunderground v.1.15,2013-07-22 04:34:00,
2013-07-21 23:40:00,83.9,73.5,29.73,South,173,1.0,1.0,71,0.00,,,1.22,Wunderground v.1.15,2013-07-22 04:40:00,
2013-07-21 23:46:00,83.7,73.3,29.74,South,175,1.0,3.0,71,0.00,,,1.22,Wunderground v.1.15,2013-07-22 04:46:00,
2013-07-21 23:52:00,83.6,73.2,29.74,SSE,165,1.0,2.0,71,0.00,,,1.22,Wunderground v.1.15,2013-07-22 04:52:00,
2013-07-21 23:58:00,83.4,73.0,29.73,SSE,165,1.0,5.0,71,0.00,,,1.22,Wunderground v.1.15,2013-07-22 04:58:00,